Regional Weather Roundup
Issued by NWS

Home | Current Version | Previous Version | Graphics & Text | Print | Product List | Glossary Off
Versions: 1 2 3 4 5 6 7 8 9 10 11 12 13 14 15 16 17 18 19 20 21 22 23 24 25 26 27 28 29 30 31 32 33 34 35 36 37 38 39 40 41 42 43 44 45 46 47 48 49 50

000
ASUS43 KMKX 090300
RWRWI

WISCONSIN REGIONAL WEATHER ROUNDUP
NATIONAL WEATHER SERVICE MILWAUKEE/SULLIVAN WI
900 PM CST THU DEC 08 2016

NOTE: "FAIR" INDICATES FEW OR NO CLOUDS BELOW 12,000 FEET WITH NO
SIGNIFICANT WEATHER AND/OR OBSTRUCTIONS TO VISIBILITY.

WIZ001-002-006>008-014>016-023>028-090400-
NORTHWEST WISCONSIN

CITY           SKY/WX    TMP DP  RH WIND       PRES   REMARKS
SUPERIOR ARPT  CLOUDY    21  11  64 NW10      30.44S WCI  10
ASHLAND        CLOUDY    20  11  68 NW8       30.39R WCI  10
HAYWARD        CLOUDY    20  10  65 NW7       30.37R WCI  11
SIREN          CLEAR     15  12  87 NW6       30.43S WCI   6
CUMBERLAND     CLOUDY    21  12  68 NW12G17   30.39S WCI   9
RICE LAKE      CLOUDY    21  14  73 W9        30.42R WCI  11
CHETEK         CLOUDY    22  15  75 W8        30.40R WCI  12
LADYSMITH      CLOUDY    22  15  72 NW12      30.37S WCI  11
EAU CLAIRE     NOT AVBL
MENOMONIE      CLOUDY    23  16  75 W9        30.43R WCI  13
NEW RICHMOND   PTCLDY    18  13  82 W8        30.45R WCI   7
OSCEOLA        CLOUDY    20  14  78 W10       30.48R WCI   9
$$

WIZ003>005-009-010-017-018-090400-
NORTH CENTRAL WISCONSIN

CITY           SKY/WX    TMP DP  RH WIND       PRES   REMARKS
MANITOWISH WTR FLURRIES  19  17  91 NW7       30.27R WCI  10
ARBOR VITAE    LGT SNOW  22  18  87 NW9       30.27R WCI  11
WOODRUFF       LGT SNOW  22  18  87 NW9       30.27R WCI  11
RHINELANDER    LGT SNOW  20  16  84 W9        30.26S FOG     WCI   9
EAGLE RIVER    FLURRIES  19  13  79 NW10G18   30.25R WCI   7
LAND O LAKES   CLOUDY    19  15  81 NW7G17    30.26R WCI  10
PHILLIPS       CLOUDY    19  15  84 NW7       30.30S WCI  10
TOMAHAWK       PTCLDY    19  13  80 NW10      30.29S WCI   7
MEDFORD        FLURRIES  20  13  73 NW10      30.31R WCI   9
MERRILL        PTCLDY    21  13  71 NW13G18   30.31R WCI   9
$$

WIZ029-030-035-036-043>047-090400-
CENTRAL WISCONSIN

CITY           SKY/WX    TMP DP  RH WIND       PRES   REMARKS
WAUSAU         CLOUDY    22  12  65 NW12G21   30.31R WCI  10
MOSINEE        CLOUDY    21  18  86 NW8       30.33R WCI  12
MARSHFIELD     CLOUDY    22  14  71 NW13      30.33R WCI  10
STEVENS POINT  CLOUDY    19  14  81 W5        30.33S WCI  13
WAUPACA        CLEAR     24  16  73 W6        30.34R WCI  17
WAUTOMA        MOCLDY    22  16  78 NW9       30.36R WCI  12
WISC RAPIDS    CLOUDY    22  15  75 NW7       30.36R WCI  13
CAMP DOUGLAS   CLOUDY    23  18  80 W13       30.38R WCI  11
$$

WIZ011>013-019>022-031-037>040-048>050-090400-
NORTHEAST WISCONSIN

CITY           SKY/WX    TMP DP  RH WIND       PRES   REMARKS
ANTIGO         MOCLDY    19  14  79 NW13G18   30.27R WCI   7
SHAWANO        CLEAR     25  20  80 W5        30.31R WCI  19
OCONTO         CLEAR     23  18  79 W6        30.29R WCI  16
STURGEON BAY   MOCLDY    27  18  69 NW13G22   30.27R WCI  16
GREEN BAY      CLEAR     25  19  78 NW10      30.31R WCI  15
MANITOWOC      NOT AVBL
APPLETON       PTCLDY    21  14  73 W12       30.29R WCI   9
CLINTONVILLE   CLEAR     23  18  80 W8        30.31R WCI  14
OSHKOSH        PTCLDY    22  15  75 W12       30.32R WCI  10
$$

WIZ032>034-041-042-053>061-090400-
SOUTHWEST WISCONSIN

CITY           SKY/WX    TMP DP  RH WIND       PRES   REMARKS
LA CROSSE      CLOUDY    25  16  68 NW12      30.44R WCI  14
SPARTA         FLURRIES  23  18  81 W7        30.42R WCI  15
VIROQUA        CLOUDY    21  17  83 NW8       30.39R WCI  12
BOSCOBEL       FLURRIES  24  17  74 W8        30.45R WCI  15
PRAIRIE DU CHI CLOUDY    22  14  72 W7        30.47R WCI  14
PLATTEVILLE    CLOUDY    21  18  87 W14G20    30.43S WCI   8
$$

WIZ056-057-062-063-064-067-068-090400-
SOUTH CENTRAL WISCONSIN

CITY           SKY/WX    TMP DP  RH WIND       PRES   REMARKS
REEDSBURG      CLOUDY    22  18  82 W8G17     30.38S WCI  13
BARABOO/DELLS  CLOUDY    22  17  81 W7        30.37R WCI  14
LONE ROCK      NOT AVBL
MINERAL POINT  FLURRIES  23  21  93 W12       30.39S WCI  12
MADISON        PTCLDY    21  15  78 W5        30.38R WCI  15
MIDDLETON      PTCLDY    23  18  82 W10       30.38S WCI  12
WATERTOWN      CLOUDY    22  17  81 W9        30.35R WCI  12
MONROE         FLURRIES  23  19  86 W15       30.38S WCI  10
JANESVILLE     PTCLDY    25  18  74 W9G16     30.38S WCI  15
$$

WIZ051-052-058>065-066-070>072-090400-
SOUTHEAST WISCONSIN

CITY           SKY/WX    TMP DP  RH WIND       PRES   REMARKS
MILWAUKEE      MOCLDY    25  15  66 W14G23    30.33R WCI  13
WAUKESHA       CLEAR     19  16  86 W13G20    30.34R WCI   7
MILWAUKEE/TIMM CLEAR     21  14  73 W10       30.34R WCI  10
RACINE         MOCLDY    23  15  71 W12G20    30.35R WCI  12
BURLINGTON     CLEAR     27  22  80 W12       30.35S WCI  17
KENOSHA        CLEAR     22  15  75 W14       30.34S WCI   9
FOND DU LAC    CLOUDY    24  14  65 W15       30.33R WCI  11
SHEBOYGAN      CLEAR     24  16  71 NW12G22   30.30R WCI  13
WEST BEND      CLEAR     23  19  86 W13G20    30.31R WCI  11
JUNEAU         CLOUDY    21  16  79 W7        30.35R WCI  13
$$

LSZ147-162-090400-
LAKE SUPERIOR

STATION/POSITION TIME  TEMP    WIND        PRES    WAVE
                       AIR SEA DIR/SP/G            HT/PER
                 (UTC) (F)     (DEG/KT/KT) (MB)    (FT/S)
DEVILS ISLAND    0200   23     320/ 21/ 24 1029.8R
PORT WING        0240   24     340/ 18/ 26 1029.8R
SAXON HARBOR     0230   26     320/ 17/ 23 1027.8R
$$

LMZ867-665-643>646-090400-
LAKE MICHIGAN

STATION/POSITION TIME  TEMP    WIND        PRES    WAVE
                       AIR SEA DIR/SP/G            HT/PER
                 (UTC) (F)     (DEG/KT/KT) (MB)    (FT/S)
CHAMBERS ISLAND  0240   28     300/ 10/ 19 1024.0R
NORTHPORT PIER   0240   30     310/ 22/ 28 1023.7R
SISTER BAY       0220   31     340/ 26/ 30   N/A
ALGOMA LAKESHORE 0106          310/  9/ 13   N/A
KEWAUNEE LAKESHO 0230   27     290/  7/ 13 1024.5R
SHEBOYGAN LAKESH 0200   26     290/ 19/ 22 1026.3R
PORT WASHINGTON  0240   24     290/ 10/ 16 1027.4R
MILWAUKEE LAKESH 0230   25     290/ 14/ 17   N/A
KENOSHA   LAKESH 0200   24     270/ 15/ 21 1027.1
$$

TC  - TEMPERATURE IN CELSIUS
VSB - VISIBILITY IN STATUTE MILES
WCI - WIND CHILL INDEX
HX  - HEAT INDEX




USA.gov is the U.S. government's official web portal to all federal, state and local government web resources and services.